{"data":{"norad_id":62178,"intl_designator":"2024-225R","name":"STARLINK-32600","alt_names":[],"object_type":"PAYLOAD","status":"ACTIVE","operator":null,"country":"US","launch_date":"2024-11-30","launch_site_code":"AFWTR","launch_vehicle":null,"mission":null,"orbit_class":"UNKNOWN","rcs_meters":null,"size_class":null,"mass_kg":null,"dimensions":null,"purposes":["comms"],"wikipedia_slug":null,"has_3d_model":false,"image_url":null,"decayed_at":null,"tle_current":{"epoch":"2026-05-24T22:33:12.101760Z","epoch_age_seconds":74122,"freshness":"FRESH","line1":"1 62178U 24225R   26144.93972340  .00004680  00000+0  39969-3 0  9999","line2":"2 62178  70.0016 322.3094 0002887 265.0262  95.0567 14.98335758 81544","mean_motion":14.98335758,"eccentricity":0.0002887,"inclination_deg":70.0016,"raan_deg":322.3094,"arg_perigee_deg":265.0262,"mean_anomaly_deg":95.0567,"bstar":0.00039969,"rev_number":8154,"period_min":96.106629793187,"perigee_km":570.03156931442,"apogee_km":574.04460040842,"semimajor_km":6950.1750848614,"source":"CELESTRAK","updated_at":"2026-05-25T13:38:19.603738Z"}}}